�������l�o���
Date,Time,MP-1(��Sv/h),MP-2(��Sv/h),MP-3(��Sv/h),MP-4(��Sv/h),MP-5(��Sv/h),MP-6(��Sv/h),MP-7(��Sv/h),MP-8(��Sv/h),����,����(m/s),���J
2021/03/24,00:00,0.626,0.918,0.584,1.139,0.804,0.370,0.649,0.610,��,3.3,��
2021/03/24,00:10,0.625,0.920,0.583,1.140,0.805,0.369,0.649,0.610,��쓌,3.1,��
2021/03/24,00:20,0.627,0.919,0.583,1.142,0.806,0.370,0.648,0.611,��,2.9,��
2021/03/24,00:30,0.626,0.921,0.585,1.141,0.805,0.370,0.649,0.613,��쓌,4.6,��
2021/03/24,00:40,0.627,0.917,0.585,1.141,0.804,0.370,0.649,0.610,��쓌,6.4,��
2021/03/24,00:50,0.627,0.920,0.584,1.139,0.804,0.369,0.650,0.611,��쓌,7.2,��
2021/03/24,01:00,0.626,0.918,0.584,1.140,0.804,0.369,0.649,0.610,��쓌,6.9,��
2021/03/24,01:10,0.625,0.920,0.586,1.141,0.806,0.371,0.650,0.610,��,6.5,��
2021/03/24,01:20,0.627,0.921,0.586,1.140,0.804,0.368,0.651,0.611,��,5.1,��
2021/03/24,01:30,0.627,0.918,0.583,1.141,0.805,0.369,0.650,0.610,��쐼,4.2,��
2021/03/24,01:40,0.628,0.919,0.586,1.144,0.804,0.369,0.650,0.611,��쐼,2.8,��
2021/03/24,01:50,0.626,0.919,0.585,1.142,0.806,0.369,0.649,0.610,��,3.3,��
2021/03/24,02:00,0.629,0.919,0.584,1.141,0.805,0.371,0.649,0.611,��,2.8,��
2021/03/24,02:10,0.627,0.918,0.584,1.140,0.804,0.370,0.649,0.610,��,1.5,��
2021/03/24,02:20,0.627,0.918,0.585,1.140,0.804,0.370,0.650,0.611,��쓌,1.9,��
2021/03/24,02:30,0.628,0.919,0.584,1.139,0.806,0.371,0.650,0.609,��쐼,1.7,��
2021/03/24,02:40,0.628,0.918,0.586,1.140,0.805,0.370,0.648,0.611,��쐼,1.2,��
2021/03/24,02:50,0.627,0.920,0.585,1.138,0.806,0.369,0.651,0.610,��쐼,2.0,��
2021/03/24,03:00,0.627,0.919,0.583,1.138,0.802,0.369,0.648,0.611,��,1.5,��
2021/03/24,03:10,0.626,0.919,0.585,1.140,0.805,0.369,0.649,0.612,��쓌,2.0,��
2021/03/24,03:20,0.627,0.918,0.585,1.140,0.805,0.370,0.649,0.610,��쓌,2.5,��
2021/03/24,03:30,0.626,0.918,0.585,1.139,0.806,0.369,0.651,0.610,��쓌,2.9,��
2021/03/24,03:40,0.627,0.919,0.584,1.139,0.804,0.370,0.650,0.609,��,2.3,��
2021/03/24,03:50,0.627,0.917,0.584,1.141,0.806,0.369,0.650,0.609,��,3.0,��
2021/03/24,04:00,0.625,0.917,0.583,1.139,0.805,0.370,0.648,0.610,��쓌,2.8,��
2021/03/24,04:10,0.627,0.918,0.583,1.140,0.802,0.370,0.650,0.611,��쓌,2.3,��
2021/03/24,04:20,0.626,0.918,0.584,1.140,0.802,0.369,0.650,0.613,��,1.7,��
2021/03/24,04:30,0.626,0.919,0.584,1.138,0.805,0.369,0.648,0.609,��쐼,2.0,��
2021/03/24,04:40,0.627,0.916,0.584,1.140,0.803,0.369,0.650,0.610,��,1.7,��
2021/03/24,04:50,0.626,0.919,0.584,1.141,0.801,0.369,0.649,0.609,��,2.9,��
2021/03/24,05:00,0.626,0.919,0.583,1.141,0.804,0.371,0.649,0.610,��쐼,3.0,��
2021/03/24,05:10,0.625,0.915,0.582,1.141,0.805,0.369,0.649,0.610,��쐼,3.5,��
2021/03/24,05:20,0.626,0.918,0.583,1.140,0.803,0.369,0.650,0.610,��쐼,4.2,��
2021/03/24,05:30,0.627,0.917,0.584,1.142,0.803,0.371,0.649,0.610,��,4.8,��
2021/03/24,05:40,0.627,0.918,0.584,1.138,0.803,0.370,0.650,0.610,��,4.2,��
2021/03/24,05:50,0.626,0.918,0.583,1.141,0.803,0.370,0.650,0.612,��,4.6,��
2021/03/24,06:00,0.624,0.920,0.585,1.141,0.805,0.370,0.651,0.610,��,5.2,��
2021/03/24,06:10,0.628,0.919,0.583,1.142,0.804,0.369,0.649,0.611,��,5.8,��
2021/03/24,06:20,0.626,0.917,0.584,1.139,0.804,0.370,0.651,0.610,��,6.8,��
2021/03/24,06:30,0.628,0.917,0.584,1.140,0.802,0.369,0.650,0.610,��쐼,6.6,��
2021/03/24,06:40,0.626,0.921,0.584,1.140,0.802,0.369,0.650,0.611,��쐼,7.3,��
2021/03/24,06:50,0.628,0.921,0.585,1.139,0.803,0.368,0.650,0.611,��쐼,7.6,��
2021/03/24,07:00,0.626,0.920,0.584,1.140,0.804,0.369,0.650,0.611,��쐼,7.1,��
2021/03/24,07:10,0.627,0.919,0.585,1.142,0.805,0.370,0.651,0.610,��쐼,7.3,��
2021/03/24,07:20,0.628,0.921,0.584,1.139,0.805,0.370,0.650,0.612,��쐼,6.1,��
2021/03/24,07:30,0.627,0.921,0.584,1.139,0.804,0.369,0.651,0.611,��쐼,5.7,��
2021/03/24,07:40,0.628,0.922,0.583,1.141,0.805,0.369,0.653,0.610,��쐼,6.7,��
2021/03/24,07:50,0.629,0.920,0.588,1.143,0.803,0.369,0.652,0.611,��쐼,6.7,��
2021/03/24,08:00,0.629,0.919,0.587,1.142,0.804,0.367,0.651,0.611,��쐼,6.3,��
2021/03/24,08:10,0.628,0.917,0.587,1.140,0.806,0.368,0.653,0.612,��쐼,7.1,��
2021/03/24,08:20,0.628,0.916,0.585,1.142,0.805,0.367,0.651,0.614,��쐼,8.4,��
2021/03/24,08:30,0.629,0.918,0.585,1.144,0.807,0.367,0.652,0.612,��쐼,8.5,��
2021/03/24,08:40,0.629,0.917,0.585,1.141,0.808,0.367,0.650,0.612,��쐼,8.2,��
2021/03/24,08:50,0.630,0.917,0.586,1.142,0.808,0.368,0.652,0.612,�쐼,5.6,��
2021/03/24,09:00,0.630,0.918,0.587,1.143,0.808,0.368,0.651,0.611,��쐼,6.3,��
2021/03/24,09:10,0.629,0.917,0.587,1.143,0.807,0.369,0.650,0.612,��쐼,6.3,��
2021/03/24,09:20,0.629,0.917,0.585,1.143,0.807,0.369,0.650,0.610,��쐼,5.6,��
2021/03/24,09:30,0.629,0.917,0.586,1.142,0.807,0.368,0.649,0.610,��,6.6,��
2021/03/24,09:40,0.628,0.917,0.587,1.141,0.807,0.369,0.650,0.610,��쓌,6.8,��
2021/03/24,09:50,0.626,0.916,0.586,1.142,0.806,0.370,0.655,0.611,��쓌,7.8,��
2021/03/24,10:00,0.628,0.916,0.586,1.144,0.807,0.369,0.651,0.610,��쓌,9.4,��
2021/03/24,10:10,0.628,0.919,0.588,1.145,0.806,0.369,0.651,0.610,��쓌,10.9,��
2021/03/24,10:20,0.628,0.920,0.585,1.143,0.807,0.370,0.653,0.613,��,10.2,��
2021/03/24,10:30,0.628,0.920,0.585,1.145,0.807,0.369,0.652,0.611,��,10.3,��
2021/03/24,10:40,0.630,0.922,0.585,1.143,0.806,0.368,0.652,0.610,��,9.1,��
2021/03/24,10:50,0.628,0.922,0.585,1.144,0.806,0.369,0.651,0.610,��,9.9,��
2021/03/24,11:00,0.629,0.922,0.585,1.144,0.806,0.369,0.651,0.610,��,10.5,��
2021/03/24,11:10,0.627,0.921,0.585,1.144,0.807,0.369,0.651,0.610,��쓌,9.0,��
2021/03/24,11:20,0.628,0.924,0.587,1.144,0.807,0.370,0.653,0.610,��,8.5,��
2021/03/24,11:30,0.629,0.925,0.587,1.143,0.808,0.370,0.652,0.610,��쓌,10.5,��
2021/03/24,11:40,0.629,0.925,0.584,1.148,0.808,0.368,0.652,0.611,��,9.1,��
2021/03/24,11:50,0.630,0.923,0.584,1.146,0.807,0.369,0.652,0.610,��쓌,10.0,��
2021/03/24,12:00,0.631,0.927,0.587,1.146,0.810,0.371,0.653,0.610,��,11.1,��
2021/03/24,12:10,0.631,0.926,0.586,1.146,0.809,0.369,0.653,0.611,��,10.3,��
2021/03/24,12:20,0.630,0.926,0.587,1.145,0.811,0.370,0.652,0.610,��쓌,9.8,��
2021/03/24,12:30,0.630,0.926,0.586,1.147,0.810,0.370,0.653,0.610,��쓌,11.0,��
2021/03/24,12:40,0.630,0.925,0.586,1.146,0.810,0.371,0.652,0.610,��,11.0,��
2021/03/24,12:50,0.631,0.928,0.586,1.146,0.812,0.370,0.653,0.612,��쓌,11.6,��
2021/03/24,13:00,0.631,0.925,0.588,1.148,0.811,0.373,0.651,0.611,��,14.4,��
2021/03/24,13:10,0.633,0.928,0.587,1.146,0.811,0.372,0.653,0.612,��쓌,13.8,��
2021/03/24,13:20,0.632,0.926,0.588,1.148,0.813,0.371,0.651,0.611,��,12.8,��
2021/03/24,13:30,0.630,0.927,0.586,1.147,0.812,0.371,0.653,0.611,��쓌,12.2,��
2021/03/24,13:40,0.632,0.927,0.587,1.147,0.809,0.372,0.650,0.611,��,13.6,��
2021/03/24,13:50,0.632,0.925,0.587,1.146,0.812,0.373,0.651,0.611,��쓌,13.3,��
2021/03/24,14:00,0.630,0.927,0.587,1.147,0.811,0.372,0.653,0.610,��쓌,17.2,��
2021/03/24,14:10,0.629,0.926,0.587,1.148,0.812,0.372,0.652,0.610,��쓌,15.8,��
2021/03/24,14:20,0.630,0.926,0.588,1.147,0.813,0.372,0.651,0.613,��쓌,15.8,��
2021/03/24,14:30,0.632,0.928,0.587,1.147,0.812,0.374,0.652,0.612,��쓌,16.0,��
2021/03/24,14:40,0.631,0.927,0.588,1.148,0.813,0.373,0.652,0.611,��쓌,13.5,��
2021/03/24,14:50,0.632,0.925,0.588,1.150,0.812,0.373,0.650,0.609,��,14.4,��
2021/03/24,15:00,0.632,0.927,0.586,1.147,0.813,0.373,0.653,0.611,��쓌,12.4,��
2021/03/24,15:10,0.631,0.928,0.588,1.149,0.813,0.373,0.654,0.611,��,13.3,��
2021/03/24,15:20,0.631,0.926,0.589,1.149,0.813,0.373,0.652,0.611,��쓌,14.9,��
2021/03/24,15:30,0.632,0.928,0.587,1.149,0.812,0.373,0.653,0.611,��,14.1,��
2021/03/24,15:40,0.633,0.927,0.589,1.148,0.813,0.375,0.653,0.611,��,14.7,��
2021/03/24,15:50,0.632,0.928,0.588,1.149,0.812,0.373,0.654,0.612,��,11.6,��
2021/03/24,16:00,0.633,0.929,0.589,1.149,0.814,0.374,0.652,0.612,��쓌,14.2,��
2021/03/24,16:10,0.632,0.927,0.587,1.150,0.813,0.375,0.651,0.611,��,12.1,��
2021/03/24,16:20,0.631,0.927,0.588,1.150,0.815,0.373,0.653,0.613,��,14.2,��
2021/03/24,16:30,0.631,0.926,0.588,1.148,0.815,0.373,0.652,0.612,��,12.1,��
2021/03/24,16:40,0.631,0.928,0.586,1.149,0.814,0.375,0.652,0.612,��,12.0,��
2021/03/24,16:50,0.632,0.927,0.588,1.149,0.813,0.375,0.653,0.612,��,11.7,��
2021/03/24,17:00,0.631,0.930,0.587,1.148,0.813,0.375,0.652,0.613,��,11.6,��
2021/03/24,17:10,0.631,0.928,0.589,1.147,0.812,0.375,0.652,0.613,��,11.0,��
2021/03/24,17:20,0.631,0.930,0.587,1.148,0.813,0.376,0.651,0.613,��,11.7,��
2021/03/24,17:30,0.633,0.930,0.586,1.146,0.811,0.373,0.653,0.615,��,11.7,��
2021/03/24,17:40,0.633,0.928,0.588,1.147,0.813,0.375,0.653,0.613,��,10.9,��
2021/03/24,17:50,0.634,0.929,0.589,1.149,0.813,0.375,0.652,0.614,��,11.4,��
2021/03/24,18:00,0.633,0.930,0.589,1.148,0.813,0.375,0.655,0.615,��,11.1,��
2021/03/24,18:10,0.634,0.930,0.589,1.148,0.812,0.374,0.654,0.614,��,9.6,��
2021/03/24,18:20,0.634,0.931,0.590,1.150,0.814,0.375,0.654,0.613,��,9.8,��
2021/03/24,18:30,0.634,0.931,0.590,1.150,0.817,0.374,0.655,0.614,��,9.2,��
2021/03/24,18:40,0.634,0.930,0.590,1.150,0.818,0.372,0.656,0.614,��,9.7,��
2021/03/24,18:50,0.634,0.931,0.590,1.149,0.816,0.376,0.653,0.613,��쐼,8.9,��
2021/03/24,19:00,0.634,0.929,0.589,1.147,0.815,0.375,0.654,0.614,��쐼,9.6,��
2021/03/24,19:10,0.634,0.930,0.591,1.151,0.815,0.373,0.655,0.614,��쐼,9.0,��
2021/03/24,19:20,0.635,0.931,0.590,1.148,0.815,0.373,0.654,0.613,��쐼,8.6,��
2021/03/24,19:30,0.633,0.930,0.589,1.150,0.817,0.373,0.654,0.613,��,9.0,��
2021/03/24,19:40,0.634,0.932,0.591,1.147,0.816,0.373,0.655,0.613,��,9.5,��
2021/03/24,19:50,0.633,0.929,0.590,1.150,0.815,0.373,0.654,0.612,��쐼,9.9,��
2021/03/24,20:00,0.634,0.929,0.588,1.148,0.815,0.373,0.653,0.614,��쐼,8.4,��
2021/03/24,20:10,0.636,0.930,0.589,1.149,0.815,0.372,0.653,0.612,��쐼,7.8,��
2021/03/24,20:20,0.634,0.930,0.589,1.151,0.817,0.373,0.655,0.614,��쐼,7.3,��
2021/03/24,20:30,0.632,0.928,0.588,1.148,0.816,0.372,0.655,0.613,��쐼,7.2,��
2021/03/24,20:40,0.633,0.930,0.590,1.148,0.817,0.373,0.653,0.612,��쐼,7.2,��
2021/03/24,20:50,0.634,0.928,0.588,1.150,0.815,0.372,0.654,0.612,��쐼,7.1,��
2021/03/24,21:00,0.632,0.929,0.588,1.149,0.815,0.372,0.654,0.613,��쐼,9.1,��
2021/03/24,21:10,0.634,0.930,0.588,1.148,0.815,0.373,0.654,0.614,��쐼,9.5,��
2021/03/24,21:20,0.633,0.928,0.589,1.149,0.816,0.372,0.654,0.614,��,7.9,��
2021/03/24,21:30,0.634,0.927,0.587,1.151,0.816,0.371,0.654,0.614,��,7.7,��
2021/03/24,21:40,0.632,0.930,0.590,1.147,0.816,0.373,0.655,0.612,��,7.8,��
2021/03/24,21:50,0.633,0.928,0.589,1.150,0.815,0.373,0.653,0.615,��,6.7,��
2021/03/24,22:00,0.632,0.930,0.588,1.150,0.815,0.373,0.654,0.613,��,6.8,��
2021/03/24,22:10,0.632,0.930,0.589,1.149,0.816,0.372,0.654,0.613,��,6.9,��
2021/03/24,22:20,0.633,0.930,0.589,1.150,0.813,0.373,0.656,0.613,��,6.9,��
2021/03/24,22:30,0.634,0.928,0.589,1.148,0.815,0.372,0.653,0.613,��,7.1,��
2021/03/24,22:40,0.633,0.926,0.589,1.149,0.817,0.371,0.655,0.615,��쐼,6.3,��
2021/03/24,22:50,0.633,0.928,0.589,1.151,0.814,0.371,0.654,0.613,��쐼,6.2,��
2021/03/24,23:00,0.633,0.928,0.587,1.151,0.813,0.372,0.652,0.613,��쐼,7.0,��
2021/03/24,23:10,0.632,0.928,0.589,1.148,0.815,0.374,0.654,0.614,�쐼,6.1,��
2021/03/24,23:20,0.632,0.929,0.589,1.148,0.816,0.372,0.653,0.613,�쐼,3.9,��
2021/03/24,23:30,0.633,0.926,0.587,1.149,0.813,0.370,0.651,0.613,��,2.9,��
2021/03/24,23:40,0.633,0.929,0.587,1.148,0.814,0.372,0.655,0.612,��,3.9,��
2021/03/24,23:50,0.632,0.929,0.589,1.148,0.815,0.372,0.654,0.612,��,3.4,��
